Walhalla, ND

2:56 AM CDT on May 28, 2017 (GMT -0500)
Walhalla

Weather History for K96D - December, 2012

Change the Weather History Date:

Friday, December 7, 2012

  Actual Average (KGAF) Record (KGAF)
Temperature  
Mean Temperature 6 °F -  
Max Temperature 12 °F 20 °F 46 °F (2015)
Min Temperature 0 °F 5 °F -23 °F (1958)
Degree Days  
Heating Degree Days 59    
Moisture  
Dew Point 4 °F    
Average Humidity 88    
Maximum Humidity 100    
Minimum Humidity 79    
Precipitation  
Precipitation 0.00 in - - ()
Sea Level Pressure  
Sea Level Pressure 30.09 in    
Wind  
Wind Speed 4 mph (SW)    
Max Wind Speed 7 mph    
Max Gust Speed -    
Visibility 10 miles    
Events Snow    
Averages and records for this station are not official NWS values.
T = Trace of Precipitation, MM = Missing Value Source: NWS Daily Summary

Daily Weather History Graph

Daily Weather History Graph

Search for Another Location

Airport or City:

Trip Planner

Search our weather history database for the weather conditions in past years. The results will help you decide how hot, cold, wet, or windy it might be!

Date:

Astronomy

Dec. 07, 2012 Rise Set
Actual Time 8:11 AM CST 4:34 PM CST
Civil Twilight 7:34 AM CST 5:11 PM CST
Nautical Twilight 6:54 AM CST 5:51 PM CST
Astronomical Twilight 6:16 AM CST 6:30 PM CST
Moon 1:03 AM CST (12/7) 12:58 PM CST (12/7)
Length of Visible Light 9h 36m
Length of Day
8h 22m
Last Quarter, 38% of the Moon is Illuminated
Dec 7
Last Quarter
Dec 13
New
Dec 19
First Quarter
Dec 28
Full
Jan 4
Last Quarter

Hourly Weather History & Observations

Time (CST) Temp. Windchill Dew Point Humidity Pressure Visibility Wind Dir Wind Speed Gust Speed Precip Events Conditions
12:15 AM 10.4 °F 0.8 °F 6.8 °F 85% 30.00 in 10.0 mi WNW 5.8 mph - N/A   Clear
12:35 AM 10.4 °F -0.4 °F 6.8 °F 85% 30.01 in 10.0 mi West 6.9 mph - N/A   Clear
12:55 AM 10.4 °F 0.8 °F 6.8 °F 85% 30.01 in 10.0 mi WSW 5.8 mph - N/A   Clear
1:15 AM 10.4 °F 2.2 °F 6.8 °F 85% 30.01 in 10.0 mi West 4.6 mph - N/A   Clear
1:35 AM 8.6 °F -1.3 °F 6.8 °F 92% 30.01 in 10.0 mi West 5.8 mph - N/A   Mostly Cloudy
1:55 AM 8.6 °F -1.3 °F 6.8 °F 92% 30.02 in 10.0 mi WSW 5.8 mph - N/A   Overcast
2:15 AM 8.6 °F 0.1 °F 5.0 °F 85% 30.02 in 10.0 mi WSW 4.6 mph - N/A   Overcast
2:35 AM 8.6 °F 0.1 °F 5.0 °F 85% 30.02 in 10.0 mi WSW 4.6 mph - N/A   Mostly Cloudy
2:55 AM 8.6 °F -1.3 °F 5.0 °F 85% 30.03 in 10.0 mi SW 5.8 mph - N/A   Scattered Clouds
3:15 AM 6.8 °F -4.8 °F 5.0 °F 92% 30.03 in - SW 6.9 mph - N/A   Unknown
3:35 AM 6.8 °F -3.5 °F 5.0 °F 92% 30.04 in - SW 5.8 mph - N/A   Unknown
3:55 AM 6.8 °F -0.1 °F 5.0 °F 92% 30.03 in 10.0 mi WSW 3.5 mph - N/A   Scattered Clouds
4:15 AM 6.8 °F -2.0 °F 5.0 °F 92% 30.03 in 10.0 mi SW 4.6 mph - N/A   Partly Cloudy
4:35 AM 6.8 °F -2.0 °F 5.0 °F 92% 30.03 in 10.0 mi SW 4.6 mph - N/A   Clear
4:55 AM 6.8 °F -2.0 °F 3.2 °F 85% 30.04 in 10.0 mi SW 4.6 mph - N/A   Clear
5:15 AM 6.8 °F -2.0 °F 3.2 °F 85% 30.05 in 10.0 mi SSW 4.6 mph - N/A   Clear
5:35 AM 6.8 °F -4.8 °F 3.2 °F 85% 30.06 in - SSW 6.9 mph - N/A   Unknown
5:55 AM 5.0 °F -6.9 °F 3.2 °F 92% 30.06 in - SW 6.9 mph - N/A   Unknown
6:15 AM 5.0 °F -5.6 °F 1.4 °F 85% 30.05 in - SW 5.8 mph - N/A   Unknown
6:35 AM 5.0 °F -4.1 °F 1.4 °F 85% 30.06 in 10.0 mi SW 4.6 mph - N/A   Unknown
6:55 AM 5.0 °F -5.6 °F 1.4 °F 85% 30.06 in - SSW 5.8 mph - N/A   Unknown
7:15 AM 5.0 °F -5.6 °F 1.4 °F 85% 30.08 in - SW 5.8 mph - N/A   Unknown
7:35 AM 5.0 °F -4.1 °F 1.4 °F 85% 30.08 in - SW 4.6 mph - N/A   Unknown
7:55 AM 5.0 °F -4.1 °F 1.4 °F 85% 30.08 in 10.0 mi SW 4.6 mph - N/A   Clear
8:15 AM 5.0 °F -5.6 °F 1.4 °F 85% 30.09 in 10.0 mi SW 5.8 mph - N/A   Clear
8:35 AM 5.0 °F -6.9 °F 1.4 °F 85% 30.10 in - SW 6.9 mph - N/A   Unknown
8:55 AM 5.0 °F -5.6 °F 1.4 °F 85% 30.11 in 10.0 mi SW 5.8 mph - N/A   Clear
9:15 AM 6.8 °F -2.0 °F 3.2 °F 85% 30.11 in 10.0 mi West 4.6 mph - N/A   Clear
9:35 AM 6.8 °F -2.0 °F 5.0 °F 92% 30.11 in 10.0 mi NW 4.6 mph - N/A   Clear
9:55 AM 8.6 °F 0.1 °F 5.0 °F 85% 30.12 in 10.0 mi NW 4.6 mph - N/A   Clear
10:15 AM 8.6 °F - 6.8 °F 92% 30.12 in 10.0 mi Calm Calm - N/A   Clear
10:35 AM 8.6 °F - 6.8 °F 92% 30.13 in 10.0 mi Calm Calm - N/A   Clear
10:55 AM 10.4 °F - 6.8 °F 85% 30.13 in 10.0 mi Calm Calm - N/A   Mostly Cloudy
11:15 AM 10.4 °F - 6.8 °F 85% 30.13 in 10.0 mi Calm Calm - N/A   Mostly Cloudy
11:35 AM 10.4 °F - 6.8 °F 85% 30.13 in 10.0 mi Calm Calm - N/A Snow Light Snow
11:55 AM 10.4 °F 4.0 °F 6.8 °F 85% 30.13 in 10.0 mi ENE 3.5 mph - N/A Snow Light Snow
12:15 PM 10.4 °F 4.0 °F 6.8 °F 85% 30.12 in 10.0 mi East 3.5 mph - N/A Snow Light Snow
12:35 PM 10.4 °F 4.0 °F 6.8 °F 85% 30.12 in 10.0 mi ENE 3.5 mph - N/A Snow Light Snow
12:55 PM 12.2 °F 4.3 °F 8.6 °F 85% 30.11 in 9.0 mi NE 4.6 mph - N/A Snow Light Snow
1:15 PM 12.2 °F 6.1 °F 6.8 °F 79% 30.11 in 6.0 mi NNE 3.5 mph - N/A Snow Light Snow
1:35 PM 12.2 °F 6.1 °F 6.8 °F 79% 30.11 in 10.0 mi North 3.5 mph - N/A   Partly Cloudy
1:55 PM 12.2 °F 6.1 °F 8.6 °F 85% 30.11 in 5.0 mi NNE 3.5 mph - N/A Snow Light Snow
2:15 PM 10.4 °F 4.0 °F 6.8 °F 85% 30.11 in 10.0 mi NE 3.5 mph - N/A   Partly Cloudy
2:35 PM 10.4 °F 4.0 °F 6.8 °F 85% 30.11 in 10.0 mi East 3.5 mph - N/A Snow Light Snow
2:55 PM 10.4 °F 4.0 °F 6.8 °F 85% 30.11 in 10.0 mi ESE 3.5 mph - N/A Snow Light Snow
3:15 PM 10.4 °F 2.2 °F 6.8 °F 85% 30.11 in 10.0 mi ESE 4.6 mph - N/A   Scattered Clouds
3:35 PM 10.4 °F - 6.8 °F 85% 30.12 in 10.0 mi Calm Calm - N/A   Scattered Clouds
3:55 PM 10.4 °F - 6.8 °F 85% 30.12 in 9.0 mi Calm Calm - N/A Snow Light Snow
4:15 PM 8.6 °F 2.0 °F 6.8 °F 92% 30.13 in 10.0 mi ENE 3.5 mph - N/A   Partly Cloudy
4:35 PM 8.6 °F - 6.8 °F 92% 30.12 in 10.0 mi Calm Calm - N/A   Clear
4:55 PM 8.6 °F - 5.0 °F 85% 30.12 in 10.0 mi Calm Calm - N/A   Clear
5:15 PM 6.8 °F - 5.0 °F 92% 30.12 in 10.0 mi Calm Calm - N/A   Clear
5:35 PM 6.8 °F - 5.0 °F 92% 30.12 in 10.0 mi Calm Calm - N/A   Scattered Clouds
5:55 PM 6.8 °F - 3.2 °F 85% 30.12 in 10.0 mi Calm Calm - N/A   Mostly Cloudy
6:15 PM 6.8 °F - 1.4 °F 79% 30.13 in 10.0 mi Calm Calm - N/A   Partly Cloudy
6:35 PM 5.0 °F - 1.4 °F 85% 30.13 in 10.0 mi Calm Calm - N/A   Scattered Clouds
7:15 PM 5.0 °F - 1.4 °F 85% 30.13 in 10.0 mi Calm Calm - N/A   Clear
7:35 PM 5.0 °F - 1.4 °F 85% 30.13 in 10.0 mi Calm Calm - N/A   Clear
7:55 PM 3.2 °F - 1.4 °F 92% 30.14 in 10.0 mi Calm Calm - N/A   Clear
8:15 PM 3.2 °F - 1.4 °F 92% 30.13 in 10.0 mi Calm Calm - N/A   Clear
8:35 PM 3.2 °F - 1.4 °F 92% 30.13 in 10.0 mi Calm Calm - N/A   Partly Cloudy
8:55 PM 1.4 °F - -0.4 °F 92% 30.13 in 10.0 mi Calm Calm - N/A   Partly Cloudy
9:15 PM 1.4 °F -8.3 °F -0.4 °F 92% 30.12 in 10.0 mi SSW 4.6 mph - N/A   Partly Cloudy
9:35 PM 1.4 °F -6.2 °F -0.4 °F 92% 30.12 in 10.0 mi SW 3.5 mph - N/A   Clear
9:55 PM 1.4 °F - -0.4 °F 92% 30.11 in 10.0 mi Calm Calm - N/A   Clear
10:15 PM 1.4 °F -6.2 °F -0.4 °F 92% 30.11 in 10.0 mi SW 3.5 mph - N/A   Clear
10:35 PM 1.4 °F -6.2 °F -0.4 °F 92% 30.11 in 10.0 mi SSW 3.5 mph - N/A   Clear
10:55 PM 1.4 °F - -0.4 °F 92% 30.10 in 10.0 mi Calm Calm - N/A   Clear
11:15 PM 1.4 °F -8.3 °F -0.4 °F 92% 30.10 in - SSW 4.6 mph - N/A   Unknown
11:35 PM -0.4 °F -8.3 °F -0.4 °F 100% 30.09 in 10.0 mi SSW 3.5 mph - N/A   Overcast
11:55 PM -0.4 °F -10.4 °F -0.4 °F 100% 30.09 in 10.0 mi SSW 4.6 mph - N/A   Overcast